Location: Reading
(51.4439°N, 0.9841°W)
Time: 10:35:03
(UTC+01:00)

ISS - Visible Passes

Search period start: 27 September 2021 00:00
Search period end: 07 October 2021 00:00
Orbit: 417 x 422 km, 51.6° (Epoch: 27 September)

Date Brightness Start Highest point End Pass type
(mag) Time Alt. Az. Time Alt. Az. Time Alt. Az.
27 Sep -3.8 20:51:20 10° W 20:54:42 71° SSW 20:54:43 71° SSW visible
28 Sep -3.8 20:04:01 10° W 20:07:24 84° S 20:09:11 26° ESE visible
28 Sep -1.2 21:40:58 10° W 21:42:09 18° W 21:42:09 18° W visible
29 Sep -3.7 19:16:42 10° W 19:20:05 88° N 19:23:28 10° E visible
29 Sep -2.9 20:53:34 10° W 20:56:38 42° SW 20:56:38 42° SW visible
30 Sep -3.4 20:06:14 10° W 20:09:32 56° SSW 20:11:09 26° SE visible
30 Sep -0.7 21:43:43 10° WSW 21:44:08 12° WSW 21:44:08 12° WSW visible
01 Oct -3.6 19:18:54 10° W 19:22:15 70° SSW 19:25:37 10° ESE visible
01 Oct -1.8 20:56:02 10° W 20:58:42 22° SW 20:58:42 22° SW visible
02 Oct -2.3 20:08:31 10° W 20:11:32 30° SSW 20:13:20 19° SSE visible
03 Oct -2.7 19:21:07 10° W 19:24:20 41° SSW 19:27:31 10° SE visible
03 Oct -0.9 20:59:45 10° SW 21:00:28 10° SW 21:01:01 10° SW visible
04 Oct -1.1 20:11:17 10° WSW 20:13:22 16° SW 20:15:27 10° S visible
05 Oct -1.5 19:23:34 10° W 19:26:13 22° SW 19:28:53 10° SSE visible
